This is the latest recevied weather packets stored in our database for station/object WX5RP. If no packets are shown the sender has not sent any weather packets the latest 10 day(s).
| Time | Temp. | Humidity | Pressure | Rain* | Wind** | Luminosity | Snow |
|---|---|---|---|---|---|---|---|
| 1788131416 | 24.44° C | 12% | 1018 hPa | 0 mm | - | 630 W/m² | - |
| 1788130815 | 23.89° C | 14% | 1018.1 hPa | 0 mm | - | 659 W/m² | - |
| 1788130215 | 23.33° C | 16% | 1018.4 hPa | 0 mm | - | 681 W/m² | - |
| 1788129615 | 23.33° C | 15% | 1018.6 hPa | 0 mm | - | 712 W/m² | - |
| 1788129015 | 23.89° C | 14% | 1018.8 hPa | 0 mm | - | 735 W/m² | - |
| 1788128415 | 23.33° C | 16% | 1019.2 hPa | 0 mm | - | 762 W/m² | - |
| 1788127815 | 23.33° C | 15% | 1018.8 hPa | 0 mm | - | 780 W/m² | - |
| 1788127217 | 22.78° C | 15% | 1018.5 hPa | 0 mm | - | 799 W/m² | - |
| 1788126617 | 23.33° C | 15% | 1018.8 hPa | 0 mm | - | 48 W/m² | - |
| 1788126017 | 22.78° C | 17% | 1019.4 hPa | 0 mm | - | 839 W/m² | - |
| 1788125417 | 22.78° C | 19% | 1019.1 hPa | 0 mm | - | 869 W/m² | - |
| 1788124817 | 22.78° C | 19% | 1019.3 hPa | 0 mm | - | 717 W/m² | - |
| 1788124217 | 22.78° C | 19% | 1019.7 hPa | 0 mm | - | 909 W/m² | - |
| 1788123617 | 21.67° C | 20% | 1019.4 hPa | 0 mm | - | 944 W/m² | - |
| 1788123017 | 22.22° C | 21% | 1019.4 hPa | 0 mm | - | 780 W/m² | - |
| 1788122417 | 21.67° C | 22% | 1019.7 hPa | 0 mm | - | 916 W/m² | - |
| 1788121817 | 21.67° C | 23% | 1019.7 hPa | 0 mm | - | 896 W/m² | - |
| 1788121216 | 21.11° C | 25% | 1019.7 hPa | 0 mm | - | 914 W/m² | - |
| 1788120616 | 21.11° C | 25% | 1019.4 hPa | 0 mm | - | 935 W/m² | - |
| 1788120017 | 20.56° C | 27% | 1019.5 hPa | 0 mm | - | 888 W/m² | - |
| 1788119417 | 20° C | 29% | 1019.7 hPa | 0 mm | - | 717 W/m² | - |
| 1788118817 | 20° C | 29% | 1020.5 hPa | 0 mm | - | 932 W/m² | - |
| 1788118216 | 18.89° C | 31% | 1020.5 hPa | 0 mm | - | 906 W/m² | - |
| 1788117616 | 18.33° C | 32% | 1020.6 hPa | 0 mm | - | 891 W/m² | - |
| 1788117016 | 18.33° C | 33% | 1019.9 hPa | 0 mm | - | 844 W/m² | - |
* Rain latest hour (hover to see other rain measurements)
** Current wind speed in m/s (hover to see current wind gust speed)